SCP
0 0 0 0 0 0 0 0 0 0 0 0 0 0 0 0 0 0 0 0 0 0 0 0 0 0 0 0 0 0 0 0 0 0 0 0 0 0 0 0 0 0 0 0 0
0 0 0 0 0 0 0 0 0 0 0 0 0 0 0 0 0 0 0 0 0 0 0 0 0 0 0 0 0 0 0 0 0 0 0 0 0 0 0 0 0 0 0 0 0
0 0 0 0 0 0 0 0 0 0 0 0 0 0 0 0 0 0 0 0 0 0 0 0 0 0 0 0 0 0 0 0 0 0 0 0 0 0 0 0 0 0 0 0 0
0 0 0 0 0 0 0 0 0 0 0 0 0 0 0 0 0 0 0 0 0 0 0 0 0 0 0 0 0 0 0 0 0 0 0 0 0 0 0 0 0 0 0 0 0
0 0 0 0 0 0 0 0 0 0 0 0 0 0 0 0 0 0 0 0 0 0 0 0 0 0 0 0 0 0 0 0 0 0 0 0 0 0 0 0 0 0 0 0 0
0 0 0 0 0 0 0 0 0 0 0 0 0 0 0 0 0 0 0 0 0 0 0 0 0 0 0 0 0 0 0 0 0 0 0 0 0 0 0 0 0 0 0 0 0
0 0 0 0 0 0 0 0 0 0 0 0 0 0 0 0 0 0 0 0 0 0 0 0 0 0 0 0 0 0 0 0 0 0 0 0 0 0 0 0 0 0 0 0 0
0 0 0 0 0 0 0 0 0 0 0 0 0 0 0 0 0 0 0 0 0 0 0 0 0 0 0 0 0 0 0 0 0 0 0 0 0 0 0 -0 -0 -0 -0 0 0
0 0 0 0 0 0 0 0 -0 0 0 0 0 0 0 0 0 0 0 0 0 0 0 0 0 0 0 0 0 0 0 0 0 0 0 0 0 0 0 -0 0 0 -0 0 0
0 0 0 0 0 0 0 0 0 0 0 0 0 0 0 0 0 0 0 0 0 0 0 0 0 0 0 0 0 0 0 0 0 0 -0 -0 -0 0 0 0 0 0 -0 0 0
0 0 0 0 0 0 0 0 0 0 0 0 0 0 0 0 0 0 0 0 0 0 0 0 0 -0 -0 -0 -0 0 0 0 0 0 0 -0 -0 0 0 0 0 0 0 -0 0
-0 0 0 0 0 0 0 0 0 0 0 0 0 0 0 0 0 0 0 0 0 0 -0 0 -0 -0 -0 0 0 0 0 0 0 0 0 0 0 0 0 0 0 -0 -0 -0 0
0 0 0 0 0 0 0 0 0 0 0 0 0 0 0 0 0 0 0 0 0 0 0 0 -0 0 0 0 0 0 0 0 0 0 0 0 0 0 0 0 0 -0 -0 -0 0
-0 0 0 0 0 0 0 0 0 0 0 0 0 0 0 0 0 0 0 0 0 0 -0 0 0 0 0 -0 0 -0 -0 -0 0 0 0 0 0 0 0 0 0 -0 -0 -0 0
0 0 0 0 0 0 0 0 0 0 0 0 0 0 0 0 0 0 0 0 -0 0 0 0 0 -0 -0 -0 0 -0 -0 0 0 0 0 0 0 0 0 0 0 -0 -0 -0 0
0 0 0 0 0 0 0 0 0 0 0 0 0 0 0 0 0 0 0 0 0 0 0 -0 -0 0 0 0 0 0 0 0 0 0 0 -0 0 -0 0 0 0 0 -0 0 0
0 0 0 0 0 0 0 0 0 0 0 0 0 0 -0 -0 -0 0 0 -0 -0 0 -0 -0 0 0 0 0 0 0 0 0 0 0 0 0 0 -0 -0 0 0 0 0 0 0
0 0 0 0 0 0 0 0 0 0 0 0 0 -0 -0 -0 0 0 -0 -0 -0 -0 -0 0 0 0 0 0 0 0 0 0 0 0 0 0 0 0 0 0 -0 0 0 0 0
0 0 0 0 -0 0 0 0 0 0 0 0 0 0 0 -0 0 0 0 -0 -0 -0 -0 0 0 0 0 0 0 0 0 0 0 0 0 0 0 0 -0 0 0 0 0 0 0
0 0 0 -0 -0 0 0 0 0 0 0 0 0 0 0 -0 -0 -0 -0 -0 0 -0 -0 0 0 0 0 0 0 0 0 0 0 0 0 0 0 -0 -0 -0 0 0 0 0 0
0 0 0 0 0 0 0 0 0 0 0 0 0 -0 0 -0 0 0 0 0 0 0 0 0 0 0 0 0 0 0 0 0 0 0 0 -0 -0 -0 0 0 0 0 0 0 0
0 0 0 0 0 0 0 0 0 0 0 0 0 0 0 -0 0 0 0 0 0 0 0 0 0 0 0 0 0 0 0 0 -0 0 0 -0 0 0 0 0 0 0 0 0 0
0 0 0 0 0 0 0 0 0 0 0 0 0 0 0 0 0 0 0 0 0 0 0 0 0 0 0 0 0 0 -0 0 -0 0 -0 0 0 0 0 0 0 0 0 0 0
0 0 0 0 0 0 0 0 0 0 0 0 0 0 0 -0 0 0 0 0 0 0 0 0 0 0 0 0 0 0 -0 -0 0 0 0 0 0 0 0 0 0 0 0 0 0
0 0 0 0 0 0 0 0 0 0 0 0 -0 0 0 0 0 0 0 -0 0 0 0 0 0 0 0 0 0 0 0 -0 -0 0 0 0 0 0 0 0 0 0 0 0 0
0 0 0 0 0 0 0 0 0 0 0 -0 0 0 -0 -0 0 -0 -0 0 0 -0 0 0 0 0 0 0 0 0 0 0 0 0 0 0 0 0 0 0 0 0 0 0 0
0 0 0 0 0 0 0 0 0 0 0 0 0 0 -0 -0 -0 -0 -0 -0 -0 0 0 0 0 0 0 0 0 0 0 0 0 0 0 0 0 0 0 0 0 0 0 0 0
Wind_Speed_500mb
17 17 15 18 19 23 25 24 22 21 25 26 27 29 35 41 45 45 15 10 3 12 16 13 14 14 10 3 6 10 14 28 40 34 32 28 28 33 12 16 24 28 31 11 17
14 13 13 17 21 26 27 23 21 19 22 28 29 32 34 40 48 11 13 9 11 9 12 17 15 12 2 3 4 19 15 24 16 10 18 15 13 14 12 28 26 27 20 11 16
20 16 13 16 21 29 26 26 19 20 24 26 29 33 33 38 28 3 7 9 9 10 9 13 12 12 4 5 8 9 17 12 23 15 21 21 28 23 17 28 27 25 19 28 29
27 17 14 21 23 28 29 26 24 21 24 22 28 32 29 35 12 5 9 19 11 8 8 12 14 14 9 9 10 16 21 24 21 23 25 31 32 36 34 37 27 27 24 30 34
23 18 23 27 28 28 25 24 25 24 23 27 29 33 27 19 19 13 22 26 29 25 27 23 21 17 16 9 16 27 29 29 31 36 40 43 46 42 54 41 39 50 48 44 40
22 26 22 18 19 21 22 25 28 30 31 32 32 32 21 26 19 21 22 24 20 25 26 19 7 5 17 20 22 19 32 42 41 36 29 33 43 42 46 33 32 31 40 40 41
25 15 15 20 26 28 31 31 32 34 35 35 30 28 24 36 37 30 28 24 20 22 23 21 17 13 7 15 15 25 34 36 41 41 32 30 45 51 43 44 53 49 45 45 51
8 13 21 32 33 33 35 34 35 38 40 36 30 25 19 27 26 12 17 24 20 22 26 22 20 15 27 19 21 21 26 24 5 13 14 20 50 32 17 28 40 44 47 56 47
17 20 33 33 33 35 35 34 35 38 35 27 17 9 14 13 13 24 29 27 25 23 22 15 15 15 11 16 21 17 23 36 34 31 10 27 38 28 18 36 48 53 53 52 49
19 31 37 39 38 34 30 24 25 23 14 13 9 5 10 13 39 38 35 25 19 10 9 17 15 9 12 18 22 21 25 31 32 1 27 29 49 41 48 42 46 45 37 38 45
32 36 40 28 17 14 17 17 12 7 20 8 21 19 30 31 34 17 25 19 11 10 11 17 11 27 42 43 47 38 40 49 39 16 23 38 46 51 50 47 49 51 49 50 56
31 18 17 9 10 14 15 10 9 10 15 18 10 18 19 22 19 23 16 9 8 15 15 11 27 47 42 41 43 45 48 55 52 36 27 42 50 49 45 45 56 54 52 45 48
13 14 8 5 9 10 11 11 12 15 7 9 14 11 14 25 16 18 10 6 11 17 23 21 40 26 33 37 39 43 50 48 48 23 34 39 43 47 50 50 63 65 60 55 55
9 10 4 6 6 8 8 12 15 13 3 11 6 5 13 37 12 29 12 9 8 14 15 24 34 27 29 45 41 45 48 51 46 25 22 28 19 31 38 39 43 60 60 59 57
13 7 1 3 5 7 9 15 14 5 2 22 12 17 39 5 21 4 11 11 24 24 7 25 32 33 33 50 36 37 23 24 33 29 36 45 16 34 39 36 42 45 54 58 59
10 8 4 1 4 7 13 16 9 1 5 10 13 22 25 9 8 16 9 13 27 22 29 43 43 30 32 31 24 7 4 9 18 19 23 36 33 33 35 43 45 47 53 59 45
10 8 6 1 4 9 14 11 3 7 6 14 12 21 24 13 16 10 19 16 9 16 24 34 7 8 11 10 7 9 12 6 9 11 16 4 23 35 21 17 18 26 51 43 46
13 9 4 1 6 11 16 5 7 3 8 8 13 22 9 18 6 19 14 12 7 16 23 20 20 3 4 12 8 20 14 9 12 10 9 7 13 6 23 28 40 41 45 50 53
13 9 2 3 7 11 8 7 1 7 6 15 15 8 10 8 8 16 10 9 10 15 15 14 13 9 24 17 7 11 19 10 11 11 13 12 3 7 32 16 20 42 41 46 46
15 8 4 3 7 9 7 4 4 7 5 4 9 4 8 14 18 20 11 5 14 17 23 10 19 4 11 9 6 11 3 8 10 8 9 8 6 21 30 20 24 31 37 48 44
17 5 2 1 5 6 5 4 9 13 9 1 4 6 10 9 12 12 13 19 12 24 35 15 10 17 15 13 24 14 10 11 7 11 9 6 7 25 25 21 20 23 39 47 51
14 3 1 2 6 6 4 9 7 5 3 4 7 9 7 9 9 8 9 11 31 31 22 7 9 15 8 7 29 15 20 9 8 5 9 5 9 29 22 22 23 38 43 49 60
13 7 2 6 3 4 2 3 5 4 3 3 5 6 8 6 9 12 9 13 23 22 26 17 11 13 13 7 32 14 39 10 15 7 30 9 8 20 27 29 43 38 44 55 63
13 4 4 4 9 11 8 4 3 8 5 6 6 6 10 5 9 11 13 11 36 14 36 7 8 13 16 16 22 35 52 51 22 18 26 22 22 29 32 29 29 42 52 55 52
11 4 9 4 4 10 5 9 5 5 6 6 4 10 4 7 6 7 9 20 21 21 23 10 7 5 10 27 38 46 47 49 47 29 20 22 33 29 27 26 35 44 50 53 58
16 13 12 8 14 13 1 10 10 5 8 5 7 10 12 9 8 10 14 7 7 26 18 19 6 5 3 15 19 43 48 41 41 26 26 24 32 24 38 46 49 45 41 43 52
25 21 14 10 8 6 7 10 11 8 10 11 8 6 11 18 19 31 32 35 27 15 13 16 13 11 5 16 16 23 31 32 24 31 17 26 15 20 31 39 42 36 42 41 44
Wind_Direction_500mb
299 302 312 327 339 337 336 332 338 330 341 336 343 343 343 335 333 333 354 334 284 283 306 327 317 309 313 271 218 214 244 248 243 240 244 242 252 234 274 262 232 231 239 265 316
330 356 355 348 338 332 337 328 320 329 332 336 340 341 339 329 334 13 38 74 38 352 347 349 353 347 307 295 236 220 239 257 272 298 254 285 259 285 288 233 237 236 233 293 337
347 326 330 340 326 324 330 331 321 329 327 328 332 332 334 333 337 104 68 15 11 3 351 358 8 13 318 278 213 231 248 286 261 287 296 282 277 267 262 250 241 262 289 276 296
331 334 330 322 318 313 316 318 312 318 318 329 327 321 325 326 330 290 245 253 293 323 318 343 334 332 307 270 255 263 255 261 272 283 292 275 282 270 260 266 277 279 285 295 289
321 320 312 310 312 318 321 316 315 316 318 322 319 314 318 309 290 299 254 273 282 284 290 302 295 290 272 274 281 257 269 269 269 267 269 274 264 266 269 265 272 278 280 280 278
298 307 319 339 337 330 326 325 321 316 315 312 314 310 307 287 295 303 294 285 288 279 281 294 286 304 283 270 264 289 284 280 270 267 266 266 265 259 256 267 266 268 275 269 264
302 311 326 321 317 312 312 315 315 311 306 303 305 305 289 272 290 304 307 305 298 278 267 274 268 259 299 285 293 284 290 289 268 252 250 256 265 250 258 252 259 257 264 266 261
316 306 311 311 311 312 311 311 311 307 303 303 295 282 270 282 302 313 308 309 297 286 275 265 268 243 241 265 275 276 278 283 312 230 235 203 268 261 267 234 247 248 252 257 262
279 299 304 304 307 308 310 309 307 305 307 312 300 250 272 298 305 313 301 302 292 282 274 248 219 214 188 227 255 222 265 249 271 236 233 207 265 277 261 248 257 261 253 256 260
299 291 297 301 301 305 315 314 318 309 333 354 61 283 287 310 305 302 300 296 280 258 244 211 208 211 208 209 240 243 240 252 251 129 220 232 249 262 268 264 262 261 257 251 261
289 293 298 308 323 338 341 351 355 341 333 289 300 278 298 308 307 313 304 292 244 216 226 204 212 228 231 223 239 272 268 269 271 279 252 242 254 263 262 262 260 257 256 253 259
303 313 313 360 356 346 360 43 48 326 306 318 320 305 313 322 311 308 293 241 196 246 245 232 229 241 253 254 248 249 257 259 269 254 236 258 258 261 263 258 259 260 250 249 252
329 333 355 12 350 354 22 42 2 353 286 308 325 320 316 322 303 294 270 246 234 258 254 255 261 272 254 255 251 237 239 256 254 279 237 265 268 263 258 249 253 252 249 247 247
278 304 337 349 6 359 19 1 350 347 349 351 341 319 326 315 268 302 275 255 252 285 265 254 265 263 257 253 245 255 238 250 262 256 250 201 269 262 251 243 241 248 239 234 238
234 248 293 352 11 5 350 342 347 22 315 339 312 324 327 286 314 272 310 245 267 266 253 263 284 274 256 261 270 268 287 235 240 251 264 248 254 258 250 255 247 245 236 226 229
212 210 191 48 9 357 341 345 357 265 304 345 320 347 353 324 292 302 299 247 271 279 254 258 268 277 265 275 257 294 128 202 237 246 247 249 220 263 245 243 254 243 224 217 211
194 178 162 134 4 345 345 359 3 61 17 331 334 337 335 297 313 322 319 301 305 311 318 314 258 281 249 259 172 163 160 210 224 218 254 312 208 253 323 238 241 263 213 186 170
175 160 158 32 1 354 350 65 49 96 277 318 318 326 320 342 316 320 306 326 358 307 308 338 319 205 167 233 252 192 192 195 239 224 287 145 238 231 314 272 259 256 165 150 160
170 157 161 41 7 353 30 55 227 196 288 325 324 350 323 334 332 338 329 307 327 353 359 307 270 252 289 278 214 169 218 204 275 244 272 200 307 212 349 314 157 120 133 115 136
173 163 74 21 1 1 69 125 202 224 286 340 0 4 316 320 332 341 319 327 319 359 348 282 288 244 306 299 271 258 114 193 212 265 234 93 54 336 339 6 114 108 107 107 121
175 184 329 22 354 48 79 166 229 238 234 294 297 293 273 303 311 312 296 303 358 323 325 277 247 307 324 30 346 319 269 247 233 236 313 62 23 343 8 26 74 95 99 102 105
172 133 284 150 31 46 115 175 203 254 99 254 264 262 255 303 297 290 289 295 330 329 329 273 306 306 307 346 354 293 292 235 271 76 48 81 42 353 21 35 65 78 85 90 105
172 141 126 174 155 107 185 254 233 229 192 253 255 252 296 275 304 272 288 283 327 338 340 326 347 328 345 333 2 355 21 46 46 23 25 42 8 355 25 35 41 68 76 82 95
161 125 91 104 104 129 146 181 212 231 246 267 285 303 293 269 224 295 302 291 320 330 351 339 26 26 15 350 353 21 26 34 50 59 64 56 52 20 28 36 43 54 66 81 91
170 144 144 159 141 123 135 161 178 168 221 218 258 232 302 296 296 255 301 311 317 358 2 36 351 358 63 41 34 32 24 28 44 35 53 46 51 27 31 43 48 62 67 71 79
166 151 118 98 127 133 58 200 186 195 196 206 232 282 265 232 237 300 340 328 342 327 355 359 307 332 237 341 28 33 20 27 33 25 48 51 52 18 35 45 46 51 61 64 71
185 162 145 161 152 160 196 177 195 158 214 235 264 303 265 259 270 277 275 269 275 308 321 349 336 355 15 354 339 30 359 359 23 25 18 41 33 30 42 41 30 44 56 61 69
Wind_Speed_850mb
17 17 15 18 19 23 25 24 22 21 25 26 27 29 35 41 45 45 15 10 3 12 16 13 14 14 10 3 6 10 14 28 40 34 32 28 28 33 12 16 24 28 31 11 17
14 13 13 17 21 26 27 23 21 19 22 28 29 32 34 40 48 11 13 9 11 9 12 17 15 12 2 3 4 19 15 24 16 10 18 15 13 14 12 28 26 27 20 11 16
20 16 13 16 21 29 26 26 19 20 24 26 29 33 33 38 28 3 7 9 9 10 9 13 12 12 4 5 8 9 17 12 23 15 21 21 28 23 17 28 27 25 19 28 29
27 17 14 21 23 28 29 26 24 21 24 22 28 32 29 35 12 5 9 19 11 8 8 12 14 14 9 9 10 16 21 24 21 23 25 31 32 36 34 37 27 27 24 30 34
23 18 23 27 28 28 25 24 25 24 23 27 29 33 27 19 19 13 22 26 29 25 27 23 21 17 16 9 16 27 29 29 31 36 40 43 46 42 54 41 39 50 48 44 40
22 26 22 18 19 21 22 25 28 30 31 32 32 32 21 26 19 21 22 24 20 25 26 19 7 5 17 20 22 19 32 42 41 36 29 33 43 42 46 33 32 31 40 40 41
25 15 15 20 26 28 31 31 32 34 35 35 30 28 24 36 37 30 28 24 20 22 23 21 17 13 7 15 15 25 34 36 41 41 32 30 45 51 43 44 53 49 45 45 51
8 13 21 32 33 33 35 34 35 38 40 36 30 25 19 27 26 12 17 24 20 22 26 22 20 15 27 19 21 21 26 24 5 13 14 20 50 32 17 28 40 44 47 56 47
17 20 33 33 33 35 35 34 35 38 35 27 17 9 14 13 13 24 29 27 25 23 22 15 15 15 11 16 21 17 23 36 34 31 10 27 38 28 18 36 48 53 53 52 49
19 31 37 39 38 34 30 24 25 23 14 13 9 5 10 13 39 38 35 25 19 10 9 17 15 9 12 18 22 21 25 31 32 1 27 29 49 41 48 42 46 45 37 38 45
32 36 40 28 17 14 17 17 12 7 20 8 21 19 30 31 34 17 25 19 11 10 11 17 11 27 42 43 47 38 40 49 39 16 23 38 46 51 50 47 49 51 49 50 56
31 18 17 9 10 14 15 10 9 10 15 18 10 18 19 22 19 23 16 9 8 15 15 11 27 47 42 41 43 45 48 55 52 36 27 42 50 49 45 45 56 54 52 45 48
13 14 8 5 9 10 11 11 12 15 7 9 14 11 14 25 16 18 10 6 11 17 23 21 40 26 33 37 39 43 50 48 48 23 34 39 43 47 50 50 63 65 60 55 55
9 10 4 6 6 8 8 12 15 13 3 11 6 5 13 37 12 29 12 9 8 14 15 24 34 27 29 45 41 45 48 51 46 25 22 28 19 31 38 39 43 60 60 59 57
13 7 1 3 5 7 9 15 14 5 2 22 12 17 39 5 21 4 11 11 24 24 7 25 32 33 33 50 36 37 23 24 33 29 36 45 16 34 39 36 42 45 54 58 59
10 8 4 1 4 7 13 16 9 1 5 10 13 22 25 9 8 16 9 13 27 22 29 43 43 30 32 31 24 7 4 9 18 19 23 36 33 33 35 43 45 47 53 59 45
10 8 6 1 4 9 14 11 3 7 6 14 12 21 24 13 16 10 19 16 9 16 24 34 7 8 11 10 7 9 12 6 9 11 16 4 23 35 21 17 18 26 51 43 46
13 9 4 1 6 11 16 5 7 3 8 8 13 22 9 18 6 19 14 12 7 16 23 20 20 3 4 12 8 20 14 9 12 10 9 7 13 6 23 28 40 41 45 50 53
13 9 2 3 7 11 8 7 1 7 6 15 15 8 10 8 8 16 10 9 10 15 15 14 13 9 24 17 7 11 19 10 11 11 13 12 3 7 32 16 20 42 41 46 46
15 8 4 3 7 9 7 4 4 7 5 4 9 4 8 14 18 20 11 5 14 17 23 10 19 4 11 9 6 11 3 8 10 8 9 8 6 21 30 20 24 31 37 48 44
17 5 2 1 5 6 5 4 9 13 9 1 4 6 10 9 12 12 13 19 12 24 35 15 10 17 15 13 24 14 10 11 7 11 9 6 7 25 25 21 20 23 39 47 51
14 3 1 2 6 6 4 9 7 5 3 4 7 9 7 9 9 8 9 11 31 31 22 7 9 15 8 7 29 15 20 9 8 5 9 5 9 29 22 22 23 38 43 49 60
13 7 2 6 3 4 2 3 5 4 3 3 5 6 8 6 9 12 9 13 23 22 26 17 11 13 13 7 32 14 39 10 15 7 30 9 8 20 27 29 43 38 44 55 63
13 4 4 4 9 11 8 4 3 8 5 6 6 6 10 5 9 11 13 11 36 14 36 7 8 13 16 16 22 35 52 51 22 18 26 22 22 29 32 29 29 42 52 55 52
11 4 9 4 4 10 5 9 5 5 6 6 4 10 4 7 6 7 9 20 21 21 23 10 7 5 10 27 38 46 47 49 47 29 20 22 33 29 27 26 35 44 50 53 58
16 13 12 8 14 13 1 10 10 5 8 5 7 10 12 9 8 10 14 7 7 26 18 19 6 5 3 15 19 43 48 41 41 26 26 24 32 24 38 46 49 45 41 43 52
25 21 14 10 8 6 7 10 11 8 10 11 8 6 11 18 19 31 32 35 27 15 13 16 13 11 5 16 16 23 31 32 24 31 17 26 15 20 31 39 42 36 42 41 44
Wind_Direction_850mb
299 302 312 327 339 337 336 332 338 330 341 336 343 343 343 335 333 333 354 334 284 283 306 327 317 309 313 271 218 214 244 248 243 240 244 242 252 234 274 262 232 231 239 265 316
330 356 355 348 338 332 337 328 320 329 332 336 340 341 339 329 334 13 38 74 38 352 347 349 353 347 307 295 236 220 239 257 272 298 254 285 259 285 288 233 237 236 233 293 337
347 326 330 340 326 324 330 331 321 329 327 328 332 332 334 333 337 104 68 15 11 3 351 358 8 13 318 278 213 231 248 286 261 287 296 282 277 267 262 250 241 262 289 276 296
331 334 330 322 318 313 316 318 312 318 318 329 327 321 325 326 330 290 245 253 293 323 318 343 334 332 307 270 255 263 255 261 272 283 292 275 282 270 260 266 277 279 285 295 289
321 320 312 310 312 318 321 316 315 316 318 322 319 314 318 309 290 299 254 273 282 284 290 302 295 290 272 274 281 257 269 269 269 267 269 274 264 266 269 265 272 278 280 280 278
298 307 319 339 337 330 326 325 321 316 315 312 314 310 307 287 295 303 294 285 288 279 281 294 286 304 283 270 264 289 284 280 270 267 266 266 265 259 256 267 266 268 275 269 264
302 311 326 321 317 312 312 315 315 311 306 303 305 305 289 272 290 304 307 305 298 278 267 274 268 259 299 285 293 284 290 289 268 252 250 256 265 250 258 252 259 257 264 266 261
316 306 311 311 311 312 311 311 311 307 303 303 295 282 270 282 302 313 308 309 297 286 275 265 268 243 241 265 275 276 278 283 312 230 235 203 268 261 267 234 247 248 252 257 262
279 299 304 304 307 308 310 309 307 305 307 312 300 250 272 298 305 313 301 302 292 282 274 248 219 214 188 227 255 222 265 249 271 236 233 207 265 277 261 248 257 261 253 256 260
299 291 297 301 301 305 315 314 318 309 333 354 61 283 287 310 305 302 300 296 280 258 244 211 208 211 208 209 240 243 240 252 251 129 220 232 249 262 268 264 262 261 257 251 261
289 293 298 308 323 338 341 351 355 341 333 289 300 278 298 308 307 313 304 292 244 216 226 204 212 228 231 223 239 272 268 269 271 279 252 242 254 263 262 262 260 257 256 253 259
303 313 313 360 356 346 360 43 48 326 306 318 320 305 313 322 311 308 293 241 196 246 245 232 229 241 253 254 248 249 257 259 269 254 236 258 258 261 263 258 259 260 250 249 252
329 333 355 12 350 354 22 42 2 353 286 308 325 320 316 322 303 294 270 246 234 258 254 255 261 272 254 255 251 237 239 256 254 279 237 265 268 263 258 249 253 252 249 247 247
278 304 337 349 6 359 19 1 350 347 349 351 341 319 326 315 268 302 275 255 252 285 265 254 265 263 257 253 245 255 238 250 262 256 250 201 269 262 251 243 241 248 239 234 238
234 248 293 352 11 5 350 342 347 22 315 339 312 324 327 286 314 272 310 245 267 266 253 263 284 274 256 261 270 268 287 235 240 251 264 248 254 258 250 255 247 245 236 226 229
212 210 191 48 9 357 341 345 357 265 304 345 320 347 353 324 292 302 299 247 271 279 254 258 268 277 265 275 257 294 128 202 237 246 247 249 220 263 245 243 254 243 224 217 211
194 178 162 134 4 345 345 359 3 61 17 331 334 337 335 297 313 322 319 301 305 311 318 314 258 281 249 259 172 163 160 210 224 218 254 312 208 253 323 238 241 263 213 186 170
175 160 158 32 1 354 350 65 49 96 277 318 318 326 320 342 316 320 306 326 358 307 308 338 319 205 167 233 252 192 192 195 239 224 287 145 238 231 314 272 259 256 165 150 160
170 157 161 41 7 353 30 55 227 196 288 325 324 350 323 334 332 338 329 307 327 353 359 307 270 252 289 278 214 169 218 204 275 244 272 200 307 212 349 314 157 120 133 115 136
173 163 74 21 1 1 69 125 202 224 286 340 0 4 316 320 332 341 319 327 319 359 348 282 288 244 306 299 271 258 114 193 212 265 234 93 54 336 339 6 114 108 107 107 121
175 184 329 22 354 48 79 166 229 238 234 294 297 293 273 303 311 312 296 303 358 323 325 277 247 307 324 30 346 319 269 247 233 236 313 62 23 343 8 26 74 95 99 102 105
172 133 284 150 31 46 115 175 203 254 99 254 264 262 255 303 297 290 289 295 330 329 329 273 306 306 307 346 354 293 292 235 271 76 48 81 42 353 21 35 65 78 85 90 105
172 141 126 174 155 107 185 254 233 229 192 253 255 252 296 275 304 272 288 283 327 338 340 326 347 328 345 333 2 355 21 46 46 23 25 42 8 355 25 35 41 68 76 82 95
161 125 91 104 104 129 146 181 212 231 246 267 285 303 293 269 224 295 302 291 320 330 351 339 26 26 15 350 353 21 26 34 50 59 64 56 52 20 28 36 43 54 66 81 91
170 144 144 159 141 123 135 161 178 168 221 218 258 232 302 296 296 255 301 311 317 358 2 36 351 358 63 41 34 32 24 28 44 35 53 46 51 27 31 43 48 62 67 71 79
166 151 118 98 127 133 58 200 186 195 196 206 232 282 265 232 237 300 340 328 342 327 355 359 307 332 237 341 28 33 20 27 33 25 48 51 52 18 35 45 46 51 61 64 71
185 162 145 161 152 160 196 177 195 158 214 235 264 303 265 259 270 277 275 269 275 308 321 349 336 355 15 354 339 30 359 359 23 25 18 41 33 30 42 41 30 44 56 61 69